Tekamah, NE

4:08 PM CST on February 25, 2017 (GMT -0600)
Tekamah

Weather History for KTQE - May, 2013

Change the Weather History Date:

Thursday, May 30, 2013

  Actual Average Record
Temperature  
Mean Temperature 69 °F -  
Max Temperature 75 °F 78 °F 99 °F (1989)
Min Temperature 62 °F 55 °F 44 °F (2005)
Cooling Degree Days 4    
Growing Degree Days 19 (Base 50)    
Moisture  
Dew Point 61 °F    
Average Humidity 82    
Maximum Humidity 94    
Minimum Humidity 64    
Precipitation  
Precipitation 0.29 in - - ()
Sea Level Pressure  
Sea Level Pressure 29.53 in    
Wind  
Wind Speed 14 mph (SSE)    
Max Wind Speed 23 mph    
Max Gust Speed 29 mph    
Visibility 8 miles    
Events Rain , Thunderstorm    
Averages and records for this station are not official NWS values.
T = Trace of Precipitation, MM = Missing Value Source: NWS Daily Summary

Daily Weather History Graph

Daily Weather History Graph

Search for Another Location

Airport or City:

Trip Planner

Search our weather history database for the weather conditions in past years. The results will help you decide how hot, cold, wet, or windy it might be!

Date:

Astronomy

May. 30, 2013 Rise Set
Actual Time 5:53 AM CDT 8:51 PM CDT
Civil Twilight 5:20 AM CDT 9:25 PM CDT
Nautical Twilight 4:37 AM CDT 10:07 PM CDT
Astronomical Twilight 3:48 AM CDT 10:57 PM CDT
Moon 12:50 AM CDT (5/30) 12:06 PM CDT (5/30)
Length of Visible Light 16h 05m
Length of Day
14h 58m
Waning Gibbous, 62% of the Moon is Illuminated
May 30
Waning Gibbous
May 31
Last Quarter
Jun 8
New
Jun 16
First Quarter
Jun 23
Full

Hourly Weather History & Observations

Time (CDT) Temp. Dew Point Humidity Pressure Visibility Wind Dir Wind Speed Gust Speed Precip Events Conditions
12:42 AM 64.4 °F 62.6 °F 94% 29.57 in 1.5 mi SE 8.1 mph - 0.12 in Rain Heavy Rain
12:47 AM 64.4 °F 62.6 °F 94% 29.57 in 0.8 mi SE 9.2 mph - 0.23 in Rain Heavy Rain
12:52 AM 64.4 °F 62.6 °F 94% 29.55 in 1.0 mi SE 9.2 mph - 0.23 in Rain , Thunderstorm Light Thunderstorms and Rain
12:54 AM 64.0 °F 62.1 °F 93% 29.54 in 1.2 mi South 8.1 mph - 0.23 in Rain , Thunderstorm Light Thunderstorms and Rain
12:56 AM 64.4 °F 62.6 °F 94% 29.58 in 2.0 mi SW 13.8 mph - 0.01 in Rain , Thunderstorm Light Thunderstorms and Rain
1:03 AM 64.4 °F 62.6 °F 94% 29.56 in 5.0 mi SSE 8.1 mph - 0.02 in Rain , Thunderstorm Light Thunderstorms and Rain
1:11 AM 64.4 °F 62.6 °F 94% 29.56 in 3.0 mi South 8.1 mph - 0.04 in Rain Light Rain
1:54 AM 64.0 °F 62.1 °F 93% 29.50 in 8.0 mi ESE 16.1 mph - 0.05 in   Overcast
2:18 AM 64.4 °F 62.6 °F 94% 29.50 in 6.0 mi SE 20.7 mph - 0.00 in Rain Light Rain
2:36 AM 64.4 °F 62.6 °F 94% 29.49 in 7.0 mi SE 23.0 mph - 0.00 in   Mostly Cloudy
2:54 AM 64.0 °F 62.1 °F 93% 29.46 in 9.0 mi SE 20.7 mph - 0.00 in   Scattered Clouds
3:18 AM 64.4 °F 62.6 °F 94% 29.49 in 10.0 mi SSE 19.6 mph 26.5 mph N/A   Mostly Cloudy
3:33 AM 64.4 °F 60.8 °F 88% 29.50 in 10.0 mi SSE 18.4 mph - N/A   Scattered Clouds
3:54 AM 64.9 °F 61.0 °F 87% 29.47 in 10.0 mi SSE 21.9 mph 28.8 mph N/A   Clear
4:23 AM 64.4 °F 62.6 °F 94% 29.51 in 9.0 mi South 15.0 mph - N/A   Mostly Cloudy
4:54 AM 64.0 °F 61.0 °F 90% 29.50 in 10.0 mi South 16.1 mph - N/A   Overcast
5:30 AM 64.4 °F 60.8 °F 88% 29.54 in 10.0 mi South 17.3 mph - N/A   Scattered Clouds
5:54 AM 64.0 °F 60.1 °F 87% 29.52 in 10.0 mi South 16.1 mph - N/A   Clear
6:54 AM 63.0 °F 59.0 °F 87% 29.52 in 10.0 mi SSW 9.2 mph - N/A   Clear
7:54 AM 64.9 °F 61.0 °F 87% 29.57 in 10.0 mi South 12.7 mph - N/A   Clear
8:54 AM 64.9 °F 59.0 °F 81% 29.55 in 10.0 mi South 19.6 mph 26.5 mph N/A   Overcast
9:54 AM 64.9 °F 61.0 °F 87% 29.55 in 10.0 mi South 12.7 mph - 0.00 in Rain Light Rain
10:54 AM 66.0 °F 61.0 °F 84% 29.55 in 10.0 mi SSE 20.7 mph - 0.00 in   Overcast
11:54 AM 66.9 °F 61.0 °F 81% 29.56 in 10.0 mi SSE 18.4 mph - 0.00 in   Overcast
12:15 PM 66.2 °F 60.8 °F 83% 29.59 in 10.0 mi SSE 17.3 mph - N/A   Overcast
12:54 PM 69.1 °F 61.0 °F 75% 29.55 in 10.0 mi South 18.4 mph - N/A   Overcast
1:19 PM 71.6 °F 62.6 °F 73% 29.56 in 10.0 mi South 15.0 mph - N/A   Mostly Cloudy
1:28 PM 71.6 °F 62.6 °F 73% 29.55 in 10.0 mi SSE 11.5 mph 19.6 mph N/A   Mostly Cloudy
1:43 PM 71.6 °F 62.6 °F 73% 29.55 in 10.0 mi SSE 13.8 mph - N/A   Mostly Cloudy
1:54 PM 71.1 °F 61.0 °F 70% 29.52 in 10.0 mi South 17.3 mph - N/A   Overcast
2:05 PM 73.4 °F 62.6 °F 69% 29.54 in 10.0 mi SSE 16.1 mph - N/A   Mostly Cloudy
2:54 PM 73.0 °F 62.1 °F 68% 29.49 in 10.0 mi South 15.0 mph - N/A   Mostly Cloudy
3:54 PM 73.9 °F 61.0 °F 64% 29.50 in 10.0 mi SSW 18.4 mph - N/A   Scattered Clouds
4:54 PM 73.9 °F 62.1 °F 66% 29.49 in 10.0 mi South 18.4 mph - N/A   Clear
5:54 PM 75.9 °F 64.0 °F 67% 29.47 in 10.0 mi South 17.3 mph - N/A   Partly Cloudy
6:54 PM 75.0 °F 64.9 °F 71% 29.47 in 10.0 mi South 15.0 mph - N/A   Scattered Clouds
7:24 PM 75.2 °F 64.4 °F 69% 29.51 in 10.0 mi South 16.1 mph - N/A Thunderstorm Scattered Clouds
7:54 PM 73.0 °F 64.0 °F 73% 29.50 in 8.0 mi SSE 15.0 mph 26.5 mph 0.00 in Rain , Thunderstorm Light Thunderstorms and Rain
8:39 PM 69.8 °F 62.6 °F 78% 29.55 in 10.0 mi South 11.5 mph - 0.00 in Thunderstorm Mostly Cloudy
8:54 PM 70.0 °F 57.9 °F 65% 29.52 in 10.0 mi SSE 16.1 mph - 0.00 in Thunderstorm Mostly Cloudy
9:13 PM 68.0 °F 57.2 °F 68% 29.56 in 10.0 mi SE 12.7 mph - N/A   Overcast
9:45 PM 66.2 °F 59.0 °F 78% 29.56 in 10.0 mi SE 17.3 mph - 0.01 in Rain , Thunderstorm Light Rain
9:54 PM 66.9 °F 59.0 °F 76% 29.53 in 10.0 mi SE 18.4 mph - 0.01 in Rain Light Rain
10:54 PM 64.0 °F 57.9 °F 80% 29.57 in 10.0 mi SE 13.8 mph - 0.00 in   Partly Cloudy
11:54 PM 62.1 °F 57.0 °F 84% 29.58 in 10.0 mi SSE 11.5 mph - N/A   Clear